MET2388 - Rochester to Kansas City

Bombardier Dash-8-Q200
838AH
1 hr 15 mins
294 nm
Scheduled - Daily

Bid/PiRep Status

Bid was submitted on Dec 16 2016.

PiRep # 74389: Approved by Dave Nichols on December 20th, 2016 5:17 UTC

Departure

Departing from
Rochester (RST)
Departure gate
A4
Scheduled Departure
GMT 2035
Local 1535
METAR KRST 242154Z 14006KT 10SM FEW032 22/16 A3006 RMK AO2 SLP178 T02170161
TAF KRST 241844Z 2419/2518 14007KT P6SM SCT025 FM251000 16010KT P6SM SCT070 BKN120

Route Map

Planning Resources

KRST LMN BSQ BSQ4
RST MCW J25 DSM LMN BQS4
KRST ZUTEL DSM STJ MAXEE KMCI
MCW DSM LMN BQS4
KRST DSM KMCI
Route:
OFP Layout:
Units:
Detailed Navlog:
ETOPS Planning:
Plan Stepclimbs:
Runway Analysis:
Include NOTAMS:
FIR NOTAMS:
Flight Maps:

Return Flights

MET2385
Bombardier Dash-8-Q200
1400 GMT
MET2387
Bombardier Dash-8-Q200
1900 GMT

Popularity

Hub Current Bids PiReps this month Total PiReps
KMCI 0 0 4
KLAX 0 0 0
KBOS 0 0 0